Location: Beuvrequen
(50.8014°N, 1.6652°E)
Time: 19:30:40
(UTC+00:00)

Cosmos 1544 Rocket - Pass Details

Date: 16 October 2021
Orbit: 603 x 632 km, 82.5° (Epoch: 04 December)

Event Time Altitude Azimuth Distance (km) Brightness Sun altitude
Rises 18:21:46 0° 162° (SSE) 2,909 6.8 -13.9°
Reaches altitude 10° 18:24:09 10° 153° (SSE) 2,009 5.9 -14.3°
Maximum altitude 18:28:08 33° 90° (E) 1,078 4.2 -14.9°
Drops below altitude 10° 18:32:08 10° 27° (NNE) 2,026 6.0 -15.5°
Sets 18:34:33 0° 18° (NNE) 2,938 6.9 -15.9°
